[[{"header":{"parameterUnit":"m.s-1","parameterCategory":1,"la1":30.2991,"la2":30.254,"lo1":-89.0895,"lo2":-89.0444,"dy":0.0017,"dx":0.0017,"nx":28,"ny":28,"refTime":"2024-05-29T09:00:00:Z","depth":0,"parameterNumber":2,"parameterNumberName":"U-component_of_WINDS"},"data":[0,0,0,0,0,0,0,0,0,0,0,0,0,0,0,0,0,0,0,0,0,0,0,0,0,0,0,0,0,0,0,0,0,0,0,0,0,0,0,0,0,0,0,0,0,0,0,0,0,0,0,0,0,0,0,0,0,0,-1.6177,-1.6178,0,-1.6263,-1.6264,-1.6265,-1.6285,-1.6285,-1.6284,-1.6284,-1.6371,-1.6374,-1.6376,0,0,0,0,0,0,0,0,0,0,0,0,0,-1.603,-1.6032,-1.6177,-1.6178,-1.6179,-1.6263,-1.6264,-1.6265,-1.6285,-1.6285,-1.6284,-1.6283,-1.637,-1.6373,-1.6377,0,0,0,0,0,0,0,0,0,0,0,0,0,-1.6102,-1.6033,-1.6177,-1.6199,-1.6202,-1.6263,-1.6264,-1.6266,-1.6286,-1.6285,-1.6284,-1.6283,-1.6369,-1.6373,-1.6377,-1.6421,0,0,-1.639,-1.6392,0,0,0,0,0,0,0,0,-1.6098,-1.6108,-1.6195,-1.6198,-1.6201,-1.6263,-1.6244,-1.6318,-1.6286,-1.6254,-1.6284,-1.6283,-1.6335,-1.6342,-1.636,-1.6425,-1.6429,-1.6391,-1.6393,-1.6395,-1.6396,0,0,0,0,0,0,0,-1.6093,-1.6104,-1.6211,-1.6196,-1.62,-1.6205,-1.6214,-1.6258,-1.6298,-1.6257,-1.6258,-1.6268,-1.6337,-1.6356,-1.6363,-1.643,-1.639,-1.6394,-1.6397,-1.6399,-1.6536,-1.6538,0,0,0,0,0,0,-1.6084,-1.61,-1.6208,-1.6214,-1.6147,-1.6208,-1.6219,-1.6244,-1.6298,-1.6305,-1.6269,-1.6269,-1.6349,-1.6358,-1.6366,-1.6422,-1.6395,-1.6399,-1.6402,-1.6535,-1.6537,-1.6538,0,0,0,0,0,0,-1.6081,-1.6094,-1.6205,-1.6157,-1.6172,-1.6212,-1.624,-1.6246,-1.6265,-1.6307,-1.6315,-1.6281,-1.6349,-1.636,-1.6408,-1.6425,-1.6401,-1.6405,-1.6534,-1.6536,-1.6537,-1.6533,0,0,0,0,0,0,-1.6077,-1.6092,-1.611,-1.6158,-1.6174,-1.6245,-1.6241,-1.6248,-1.6273,-1.6273,-1.6321,-1.6328,-1.6349,-1.6401,-1.6412,-1.643,-1.6408,-1.6533,-1.6535,-1.6537,-1.6532,-1.6534,-1.6536,0,0,0,0,0,-1.6071,-1.6105,-1.611,-1.6123,-1.6197,-1.6246,-1.6256,-1.628,-1.6274,-1.6292,-1.6319,-1.6326,-1.6421,-1.6406,-1.6418,-1.6438,-1.6532,-1.6534,-1.6537,-1.6531,-1.6534,-1.6536,0,0,0,0,0,0,-1.6057,-1.6111,-1.6118,-1.6168,-1.6202,-1.6249,-1.6272,-1.6282,-1.6319,-1.6318,-1.6346,-1.6356,-1.6402,-1.6425,-1.6407,-1.6484,-1.6476,-1.6481,-1.6467,-1.6471,-1.6473,-1.6467,-1.6412,0,0,0,0,0,-1.606,-1.6096,-1.6141,-1.618,-1.6197,-1.6232,-1.6254,-1.627,-1.6307,-1.6321,-1.6352,-1.6387,-1.6425,-1.6449,-1.6486,-1.6535,-1.6546,-1.6555,-1.6557,-1.6559,-1.6563,-1.6591,-1.6596,-1.6546,-1.6546,-1.6546,0,0,-1.6065,-1.61,-1.612,-1.6178,-1.6207,-1.6244,-1.6244,-1.6282,-1.631,-1.6327,-1.6374,-1.6398,-1.6439,-1.6488,-1.6511,-1.6508,-1.6579,-1.6562,-1.6563,-1.6566,-1.6594,-1.6599,-1.6603,-1.6548,-1.6547,-1.6547,0,0,-1.6095,-1.6124,-1.616,-1.6189,-1.6233,-1.6256,-1.6264,-1.631,-1.6327,-1.6375,-1.6389,-1.6422,-1.6486,-1.6515,-1.6538,-1.6579,-1.6588,-1.6591,-1.6603,-1.663,-1.6634,-1.6637,-1.6652,-1.6657,-1.6595,-1.6595,-1.6595,0,-1.6096,-1.6152,-1.6178,-1.6216,-1.6241,-1.6259,-1.6296,-1.6323,-1.6376,-1.6393,-1.6389,-1.6471,-1.65,-1.6556,-1.6566,-1.6584,-1.6595,-1.6585,-1.6631,-1.6635,-1.6639,-1.6653,-1.6659,-1.6595,-1.6595,-1.6595,-1.6595,0,-1.6152,-1.6191,-1.6215,-1.6266,-1.6295,-1.6332,-1.6363,-1.6389,-1.6402,-1.6425,-1.6474,-1.651,-1.6555,-1.6569,-1.6582,-1.6627,-1.6624,-1.6626,-1.6618,-1.6643,-1.6658,-1.6663,-1.6595,-1.6595,-1.6595,-1.6595,0,0,-1.6174,-1.624,-1.6249,-1.6273,-1.6322,-1.6352,-1.6391,-1.6435,-1.6457,-1.6493,-1.6526,-1.6581,-1.6582,-1.6609,-1.6625,-1.6649,-1.668,-1.6648,-1.6649,-1.6653,-1.6732,-1.6731,-1.6737,-1.6686,-1.6687,-1.6688,-1.6729,0,-1.621,-1.6279,-1.6304,-1.6361,-1.6397,-1.6415,-1.6449,-1.6483,-1.6506,-1.654,-1.6565,-1.6604,-1.6603,-1.6619,-1.6644,-1.6671,-1.6697,-1.6669,-1.6717,-1.6719,-1.6706,-1.6745,-1.6743,-1.678,-1.6735,-1.6736,-1.6736,0,-1.626,-1.6298,-1.6359,-1.6405,-1.6421,-1.6451,-1.6494,-1.6526,-1.6565,-1.6581,-1.661,-1.6626,-1.6667,-1.6657,-1.6714,-1.6695,-1.6716,-1.6733,-1.6735,-1.674,-1.6729,-1.6751,-1.6792,-1.6798,-1.6745,-1.6745,-1.6744,0,-1.6271,-1.6336,-1.6382,-1.6402,-1.6456,-1.6477,-1.65,-1.6539,-1.6564,-1.6602,-1.6619,-1.666,-1.6683,-1.6715,-1.6741,-1.6732,-1.6796,-1.6789,-1.681,-1.6809,-1.6823,-1.6821,-1.6868,-1.6836,-1.6836,-1.6836,-1.6836,0,-1.6308,-1.6344,-1.6387,-1.6415,-1.6457,-1.6485,-1.6526,-1.655,-1.6585,-1.6618,-1.6636,-1.6666,-1.6699,-1.6734,-1.6755,-1.6799,-1.6809,-1.6822,-1.6827,-1.6821,-1.6819,-1.6835,-1.6833,-1.6838,-1.6837,-1.6837,-1.6837,0,-1.6326,-1.6356,-1.6407,-1.6455,-1.6468,-1.6496,-1.6537,-1.6565,-1.6589,-1.6631,-1.6642,-1.668,-1.6722,-1.6752,-1.6805,-1.6819,-1.6867,-1.6872,-1.6854,-1.6857,-1.6876,-1.6874,-1.6935,-1.6944,-1.6906,-1.6906,-1.6907,0,-1.6348,-1.6376,-1.6428,-1.6451,-1.6475,-1.6513,-1.6539,-1.6568,-1.6595,-1.6642,-1.6664,-1.6708,-1.6744,-1.681,-1.6842,-1.6884,-1.689,-1.6908,-1.6896,-1.6889,-1.689,-1.6888,-1.6892,-1.691,-1.691,-1.691,-1.6911,0,-1.6383,-1.6397,-1.6434,-1.6477,-1.6508,-1.6543,-1.6578,-1.6596,-1.6631,-1.666,-1.6704,-1.6732,-1.6788,-1.6831,-1.6875,-1.69,-1.6911,-1.6914,-1.6922,-1.6915,-1.6903,-1.691,-1.6859,-1.6913,-1.6913,-1.6912,-1.6912,-1.6912,-1.6404,-1.6431,-1.6471,-1.6512,-1.6542,-1.6574,-1.6603,-1.6631,-1.6668,-1.6716,-1.6731,-1.6776,-1.6815,-1.6877,-1.6902,-1.6938,-1.6936,-1.6946,-1.6949,-1.6951,-1.6951,-1.6898,-1.6946,-1.6946,-1.6946,-1.6946,-1.6946,0,-1.644,-1.6467,-1.6505,-1.6554,-1.6586,-1.6595,-1.6635,-1.6661,-1.6701,-1.6737,-1.6772,-1.6823,-1.6865,-1.69,-1.6944,-1.6966,-1.6972,-1.6976,-1.6975,-1.698,-1.695,-1.6939,-1.697,-1.697,-1.697,-1.697,-1.697,-1.697,-1.6463,-1.6509,-1.6527,-1.6588,-1.6615,-1.666,-1.6682,-1.6712,-1.6741,-1.6797,-1.6832,-1.6855,-1.6891,-1.6938,-1.6977,-1.6986,-1.7001,-1.7004,-1.7015,-1.6985,-1.6982,-1.698,-1.697,-1.7007,-1.7007,-1.7042,-1.7043,-1.7043]},{"header":{"parameterUnit":"m.s-1","parameterCategory":1,"la1":30.2991,"la2":30.254,"lo1":-89.0895,"lo2":-89.0444,"dy":0.0017,"dx":0.0017,"nx":28,"ny":28,"refTime":"2024-05-29T09:00:00:Z","depth":0,"parameterNumber":3,"parameterNumberName":"V-component_of_WINDS"},"data":[0,0,0,0,0,0,0,0,0,0,0,0,0,0,0,0,0,0,0,0,0,0,0,0,0,0,0,0,0,0,0,0,0,0,0,0,0,0,0,0,0,0,0,0,0,0,0,0,0,0,0,0,0,0,0,0,0,0,0.6624,0.6623,0,0.6526,0.6525,0.6524,0.6476,0.6476,0.6476,0.6476,0.637,0.6367,0.6364,0,0,0,0,0,0,0,0,0,0,0,0,0,0.6764,0.6761,0.6624,0.6623,0.6621,0.6526,0.6525,0.6523,0.6476,0.6476,0.6476,0.6476,0.6371,0.6367,0.6364,0,0,0,0,0,0,0,0,0,0,0,0,0,0.6688,0.6761,0.6624,0.6586,0.6582,0.6526,0.6525,0.6523,0.6476,0.6476,0.6476,0.6476,0.6372,0.6368,0.6363,0.6336,0,0,0.635,0.6348,0,0,0,0,0,0,0,0,0.6692,0.6683,0.6593,0.6589,0.6584,0.6513,0.6535,0.646,0.6476,0.6516,0.6476,0.6476,0.6417,0.6409,0.639,0.6331,0.6327,0.635,0.6347,0.6345,0.6344,0,0,0,0,0,0,0,0.6698,0.6687,0.6585,0.6592,0.6586,0.6572,0.6562,0.6521,0.6467,0.6512,0.6509,0.6498,0.6414,0.6395,0.6387,0.6325,0.635,0.6346,0.6344,0.6342,0.6239,0.6239,0,0,0,0,0,0,0.671,0.6692,0.6588,0.6582,0.6639,0.657,0.6558,0.6536,0.6468,0.6457,0.6498,0.6496,0.6402,0.6393,0.6384,0.6347,0.6345,0.6341,0.6339,0.6239,0.6239,0.6239,0,0,0,0,0,0,0.6713,0.6701,0.6592,0.6636,0.6621,0.6567,0.6543,0.6534,0.6514,0.6457,0.6446,0.6488,0.6401,0.639,0.6349,0.6343,0.634,0.6336,0.624,0.6239,0.6239,0.6275,0,0,0,0,0,0,0.6717,0.6703,0.6693,0.6636,0.6619,0.6561,0.6543,0.6532,0.6507,0.6504,0.6445,0.6435,0.6401,0.6356,0.6345,0.6337,0.6332,0.624,0.6239,0.6239,0.6274,0.6276,0.6278,0,0,0,0,0,0.6722,0.6706,0.6693,0.668,0.6606,0.656,0.655,0.6513,0.6507,0.6496,0.646,0.6437,0.6346,0.6352,0.6339,0.633,0.624,0.624,0.6239,0.6274,0.6276,0.6278,0,0,0,0,0,0,0.6761,0.6697,0.6682,0.6647,0.661,0.6552,0.6537,0.6517,0.6478,0.6477,0.643,0.6417,0.638,0.6351,0.6359,0.6301,0.6291,0.6288,0.6321,0.6323,0.6325,0.6332,0.6329,0,0,0,0,0,0.6766,0.6736,0.6681,0.6655,0.6638,0.6591,0.657,0.6545,0.6503,0.6486,0.6447,0.6406,0.6368,0.6344,0.6306,0.627,0.6256,0.6258,0.626,0.6262,0.6259,0.6238,0.6238,0.6238,0.6238,0.6238,0,0,0.6774,0.6736,0.672,0.6662,0.663,0.6599,0.6578,0.6545,0.6521,0.6481,0.644,0.641,0.6361,0.6323,0.6304,0.6298,0.6257,0.6261,0.6263,0.6259,0.6238,0.6238,0.6238,0.6237,0.6237,0.6238,0,0,0.6774,0.6743,0.6718,0.6687,0.664,0.6609,0.6603,0.6549,0.6528,0.6488,0.6457,0.6426,0.6362,0.6329,0.6304,0.6293,0.627,0.6281,0.629,0.627,0.627,0.627,0.6266,0.6265,0.6279,0.6279,0.628,0,0.679,0.6744,0.6707,0.6677,0.6652,0.6617,0.659,0.6561,0.6503,0.6486,0.648,0.64,0.6364,0.6318,0.6316,0.6296,0.6287,0.6287,0.6274,0.6273,0.6272,0.6267,0.6266,0.6281,0.6281,0.6281,0.6281,0,0.6766,0.6734,0.6719,0.6667,0.664,0.6612,0.6569,0.6547,0.6524,0.6494,0.6452,0.6409,0.6362,0.6349,0.6326,0.6299,0.6297,0.6283,0.6272,0.6275,0.6269,0.6267,0.6284,0.6283,0.6283,0.6282,0,0,0.6786,0.6715,0.671,0.6686,0.6632,0.6605,0.6575,0.6531,0.6513,0.6474,0.6447,0.6394,0.6381,0.6353,0.6325,0.6308,0.6301,0.6296,0.6294,0.6298,0.6269,0.628,0.6278,0.6287,0.6286,0.6286,0.6273,0,0.6778,0.6724,0.6691,0.665,0.6619,0.6586,0.6559,0.6523,0.6494,0.6462,0.6429,0.6393,0.6379,0.6361,0.6343,0.6306,0.6295,0.6307,0.6259,0.6258,0.6272,0.6275,0.6286,0.6276,0.6271,0.627,0.627,0,0.6761,0.6726,0.6683,0.6633,0.6618,0.6596,0.6553,0.6524,0.6481,0.6461,0.643,0.6403,0.6368,0.6361,0.6312,0.6321,0.63,0.6279,0.6278,0.6271,0.6264,0.6268,0.6272,0.627,0.6267,0.6267,0.6267,0,0.6779,0.6721,0.6688,0.6668,0.6609,0.6594,0.6568,0.6526,0.6501,0.6463,0.6447,0.6405,0.6382,0.6349,0.6311,0.6309,0.6266,0.6255,0.6247,0.6248,0.6238,0.6239,0.6238,0.6226,0.6226,0.6226,0.6226,0,0.6773,0.6748,0.6695,0.6675,0.6645,0.6607,0.6578,0.6549,0.6512,0.6484,0.6452,0.6426,0.6377,0.6345,0.6315,0.6279,0.6268,0.625,0.6242,0.6253,0.6255,0.6237,0.6236,0.6226,0.6226,0.6226,0.6226,0,0.6789,0.6753,0.6714,0.6662,0.6649,0.6629,0.6583,0.6561,0.6532,0.6497,0.6486,0.6438,0.6399,0.6358,0.6304,0.6283,0.6248,0.6237,0.6263,0.6258,0.6252,0.6253,0.6239,0.6235,0.6227,0.6227,0.6227,0,0.6787,0.6767,0.6714,0.6694,0.667,0.6638,0.6614,0.6575,0.6551,0.6501,0.6485,0.6444,0.6408,0.6347,0.6306,0.6264,0.6252,0.625,0.6245,0.6257,0.6251,0.6253,0.625,0.6251,0.6252,0.6252,0.6252,0,0.6788,0.6771,0.6739,0.67,0.6673,0.664,0.6606,0.6591,0.6545,0.6519,0.648,0.6453,0.6399,0.6357,0.6312,0.6283,0.6259,0.6254,0.625,0.626,0.6275,0.6266,0.6267,0.6254,0.6254,0.6254,0.6254,0.6254,0.6794,0.6775,0.6735,0.6699,0.667,0.6639,0.6616,0.6584,0.6551,0.6506,0.6484,0.6445,0.6402,0.6338,0.631,0.6278,0.6271,0.6265,0.6263,0.6262,0.6264,0.6282,0.6269,0.6269,0.6269,0.6269,0.6269,0,0.6792,0.6765,0.6734,0.6688,0.666,0.6643,0.6604,0.6582,0.6548,0.6511,0.6478,0.6432,0.6393,0.635,0.6307,0.6289,0.6277,0.6279,0.628,0.6273,0.6273,0.6281,0.629,0.629,0.629,0.629,0.629,0.629,0.6788,0.6755,0.6734,0.6686,0.6658,0.6621,0.66,0.6571,0.6542,0.6493,0.6461,0.6434,0.6394,0.6349,0.6311,0.6299,0.6285,0.629,0.6275,0.6275,0.6273,0.6272,0.6279,0.6287,0.6287,0.6277,0.6277,0.6277]}]]